[[{"header":{"parameterUnit":"m.s-1","parameterCategory":1,"la1":30.2991,"la2":30.254,"lo1":-89.0895,"lo2":-89.0444,"dy":0.0017,"dx":0.0017,"nx":28,"ny":28,"refTime":"2024-03-12T03:00:00:Z","depth":0,"parameterNumber":2,"parameterNumberName":"U-component_of_WINDS"},"data":[0,0,0,0,0,0,0,0,0,0,0,0,0,0,0,0,0,0,0,0,0,0,0,0,0,0,0,0,0,0,0,0,0,0,0,0,0,0,0,0,0,0,0,0,0,0,0,0,0,0,0,0,0,0,0,0,0,0,-4.3531,-4.3532,0,-4.3609,-4.361,-4.361,-4.3571,-4.3569,-4.3567,-4.3565,-4.3642,-4.3646,-4.365,0,0,0,0,0,0,0,0,0,0,0,0,0,-4.3349,-4.3352,-4.3531,-4.3532,-4.3533,-4.3609,-4.361,-4.3611,-4.3571,-4.3569,-4.3566,-4.3564,-4.3641,-4.3645,-4.365,0,0,0,0,0,0,0,0,0,0,0,0,0,-4.3427,-4.3354,-4.3531,-4.3523,-4.3523,-4.3608,-4.361,-4.3611,-4.3572,-4.3569,-4.3566,-4.3563,-4.3639,-4.3645,-4.3651,-4.3749,0,0,-4.3669,-4.3671,0,0,0,0,0,0,0,0,-4.3423,-4.3434,-4.3523,-4.3523,-4.3524,-4.3577,-4.3574,-4.3657,-4.3573,-4.3553,-4.3565,-4.3561,-4.3623,-4.363,-4.3651,-4.3752,-4.3755,-4.3669,-4.3673,-4.3676,-4.3677,0,0,0,0,0,0,0,-4.3418,-4.343,-4.3562,-4.3524,-4.3525,-4.3515,-4.3523,-4.3589,-4.3604,-4.3555,-4.3552,-4.3562,-4.3622,-4.3645,-4.3653,-4.3757,-4.3669,-4.3675,-4.3678,-4.3681,-4.3943,-4.3946,0,0,0,0,0,0,-4.3413,-4.3426,-4.3559,-4.3564,-4.3465,-4.3521,-4.3529,-4.3563,-4.3603,-4.3606,-4.3564,-4.356,-4.3637,-4.3646,-4.3655,-4.3771,-4.3676,-4.3681,-4.3685,-4.3939,-4.3943,-4.3947,0,0,0,0,0,0,-4.3409,-4.3425,-4.3556,-4.3495,-4.3511,-4.3527,-4.3565,-4.3566,-4.3589,-4.3611,-4.3613,-4.3585,-4.3635,-4.3647,-4.3726,-4.3773,-4.3684,-4.3689,-4.3935,-4.3941,-4.3945,-4.4005,0,0,0,0,0,0,-4.3404,-4.3424,-4.3461,-4.3496,-4.3514,-4.3626,-4.3568,-4.357,-4.36,-4.3594,-4.3631,-4.3634,-4.3633,-4.3717,-4.3732,-4.378,-4.3694,-4.3931,-4.3938,-4.3944,-4.3999,-4.4012,-4.4023,0,0,0,0,0,-4.3397,-4.3474,-4.3463,-4.3479,-4.3561,-4.3629,-4.3639,-4.3637,-4.3604,-4.3641,-4.3655,-4.3633,-4.3767,-4.3726,-4.3742,-4.3792,-4.3928,-4.3936,-4.3943,-4.3994,-4.4009,-4.4022,0,0,0,0,0,0,-4.3442,-4.3478,-4.3466,-4.3556,-4.359,-4.3622,-4.3668,-4.3654,-4.3697,-4.369,-4.3686,-4.3695,-4.3777,-4.3793,-4.3746,-4.389,-4.3842,-4.3853,-4.3875,-4.389,-4.3902,-4.3894,-4.3699,0,0,0,0,0,-4.3464,-4.3516,-4.3544,-4.3621,-4.3639,-4.3651,-4.3681,-4.3677,-4.3711,-4.3725,-4.3745,-4.3778,-4.3828,-4.3861,-4.3908,-4.4003,-4.401,-4.4046,-4.4058,-4.4068,-4.4076,-4.4127,-4.4144,-4.3972,-4.3972,-4.3972,0,0,-4.3506,-4.3532,-4.3565,-4.3631,-4.3656,-4.371,-4.3663,-4.3722,-4.3762,-4.3733,-4.3809,-4.3826,-4.3863,-4.3951,-4.399,-4.3967,-4.4126,-4.4077,-4.4085,-4.4088,-4.4137,-4.4153,-4.4168,-4.3977,-4.3976,-4.3976,0,0,-4.361,-4.3637,-4.3703,-4.3731,-4.377,-4.3779,-4.3795,-4.383,-4.384,-4.3917,-4.3897,-4.3945,-4.4031,-4.4058,-4.4083,-4.4203,-4.4183,-4.4219,-4.4279,-4.4329,-4.4343,-4.4354,-4.4395,-4.441,-4.4228,-4.4228,-4.4228,0,-4.3658,-4.3739,-4.3739,-4.38,-4.3829,-4.3809,-4.3876,-4.3903,-4.3956,-4.3976,-4.3951,-4.4059,-4.4083,-4.4176,-4.4206,-4.4228,-4.4246,-4.4212,-4.4341,-4.4353,-4.4364,-4.4403,-4.4418,-4.4232,-4.4232,-4.4231,-4.4231,0,-4.3794,-4.3851,-4.39,-4.3953,-4.3989,-4.4053,-4.4063,-4.4099,-4.4094,-4.4105,-4.4184,-4.4213,-4.4265,-4.4288,-4.4283,-4.4382,-4.4366,-4.4341,-4.4292,-4.4384,-4.442,-4.4435,-4.4238,-4.4236,-4.4235,-4.4234,0,0,-4.3924,-4.398,-4.3997,-4.4021,-4.4066,-4.411,-4.4174,-4.4227,-4.4257,-4.4296,-4.4349,-4.4424,-4.4402,-4.4431,-4.4429,-4.4474,-4.4565,-4.4443,-4.4444,-4.4463,-4.4675,-4.4691,-4.4708,-4.4555,-4.4558,-4.456,-4.4671,0,-4.403,-4.4142,-4.4146,-4.4247,-4.43,-4.4283,-4.4339,-4.4372,-4.4386,-4.4432,-4.4447,-4.45,-4.4467,-4.4485,-4.4529,-4.4545,-4.4607,-4.4537,-4.4602,-4.4604,-4.4589,-4.4727,-4.4744,-4.4847,-4.4685,-4.4688,-4.4689,0,-4.4167,-4.4211,-4.4318,-4.4357,-4.4379,-4.4429,-4.4478,-4.4524,-4.4562,-4.4569,-4.4603,-4.4596,-4.4661,-4.4615,-4.4704,-4.4657,-4.4684,-4.4697,-4.4701,-4.4703,-4.4649,-4.4731,-4.488,-4.4894,-4.4712,-4.471,-4.4709,0,-4.4248,-4.4335,-4.441,-4.4432,-4.4479,-4.4515,-4.4536,-4.4572,-4.4604,-4.4648,-4.4668,-4.472,-4.4747,-4.4786,-4.4793,-4.4759,-4.4883,-4.4837,-4.4889,-4.4889,-4.4912,-4.491,-4.5064,-4.4936,-4.4936,-4.4936,-4.4936,0,-4.4363,-4.4429,-4.4448,-4.4493,-4.4567,-4.4573,-4.4645,-4.4664,-4.4697,-4.4746,-4.4736,-4.4782,-4.4791,-4.4839,-4.4846,-4.4918,-4.4932,-4.4938,-4.4938,-4.4937,-4.4936,-4.4952,-4.4943,-4.494,-4.4939,-4.4938,-4.4938,0,-4.4464,-4.4479,-4.456,-4.46,-4.4612,-4.4664,-4.4698,-4.4742,-4.4756,-4.4819,-4.4834,-4.4856,-4.4913,-4.4925,-4.4993,-4.4997,-4.5083,-4.5078,-4.507,-4.5068,-4.5119,-4.5113,-4.5286,-4.5308,-4.5169,-4.517,-4.5171,0,-4.4534,-4.4585,-4.4631,-4.4664,-4.4687,-4.474,-4.4773,-4.4782,-4.4817,-4.4867,-4.4905,-4.4961,-4.5006,-4.5098,-4.512,-4.5172,-4.5165,-4.5223,-4.5173,-4.517,-4.5163,-4.5159,-4.5163,-4.5231,-4.5232,-4.5234,-4.5235,0,-4.4657,-4.4663,-4.4712,-4.4764,-4.4805,-4.4846,-4.4885,-4.4913,-4.4927,-4.4967,-4.5026,-4.5061,-4.5132,-4.5187,-4.524,-4.5262,-4.525,-4.5251,-4.5266,-4.5262,-4.5255,-4.5257,-4.5092,-4.5246,-4.5245,-4.5244,-4.5243,-4.5243,-4.4743,-4.4787,-4.4826,-4.4881,-4.4913,-4.4951,-4.4994,-4.5016,-4.5065,-4.5123,-4.5126,-4.5189,-4.5229,-4.5299,-4.5324,-4.5374,-4.5356,-4.5378,-4.5382,-4.5386,-4.539,-4.5251,-4.5384,-4.5384,-4.5384,-4.5384,-4.5383,0,-4.4862,-4.4888,-4.4939,-4.4995,-4.5039,-4.5028,-4.5072,-4.5109,-4.5165,-4.5204,-4.5249,-4.5317,-4.5372,-4.54,-4.5454,-4.5489,-4.5485,-4.5503,-4.5498,-4.5503,-4.5404,-4.5385,-4.5505,-4.5505,-4.5505,-4.5505,-4.5505,-4.5505,-4.4929,-4.5003,-4.5015,-4.5105,-4.513,-4.5193,-4.5219,-4.5254,-4.5285,-4.5361,-4.5407,-4.5426,-4.546,-4.5518,-4.5568,-4.5575,-4.5594,-4.5613,-4.5617,-4.5523,-4.551,-4.5498,-4.548,-4.5618,-4.5618,-4.5712,-4.5713,-4.5714]},{"header":{"parameterUnit":"m.s-1","parameterCategory":1,"la1":30.2991,"la2":30.254,"lo1":-89.0895,"lo2":-89.0444,"dy":0.0017,"dx":0.0017,"nx":28,"ny":28,"refTime":"2024-03-12T03:00:00:Z","depth":0,"parameterNumber":3,"parameterNumberName":"V-component_of_WINDS"},"data":[0,0,0,0,0,0,0,0,0,0,0,0,0,0,0,0,0,0,0,0,0,0,0,0,0,0,0,0,0,0,0,0,0,0,0,0,0,0,0,0,0,0,0,0,0,0,0,0,0,0,0,0,0,0,0,0,0,0,1.8679,1.868,0,1.8764,1.8765,1.8766,1.88,1.88,1.88,1.88,1.8885,1.8888,1.889,0,0,0,0,0,0,0,0,0,0,0,0,0,1.8546,1.8549,1.8679,1.868,1.8681,1.8764,1.8765,1.8767,1.88,1.88,1.88,1.88,1.8885,1.8888,1.8891,0,0,0,0,0,0,0,0,0,0,0,0,0,1.8615,1.8549,1.8679,1.8708,1.8712,1.8764,1.8765,1.8767,1.88,1.88,1.88,1.88,1.8884,1.8887,1.8891,1.892,0,0,1.8902,1.8904,0,0,0,0,0,0,0,0,1.8611,1.862,1.8703,1.8706,1.871,1.8772,1.875,1.8818,1.8801,1.8767,1.88,1.8799,1.8848,1.8854,1.8871,1.8924,1.8928,1.8903,1.8905,1.8906,1.8907,0,0,0,0,0,0,0,1.8606,1.8616,1.8713,1.8704,1.8709,1.8717,1.8727,1.8763,1.8808,1.877,1.8772,1.8782,1.885,1.8867,1.8873,1.8929,1.8902,1.8906,1.8908,1.891,1.9013,1.9014,0,0,0,0,0,0,1.8597,1.8612,1.871,1.8715,1.8659,1.872,1.873,1.8752,1.8808,1.8816,1.8782,1.8783,1.8861,1.8869,1.8876,1.8916,1.8906,1.891,1.8912,1.9013,1.9013,1.9014,0,0,0,0,0,0,1.8594,1.8605,1.8707,1.8665,1.8678,1.8723,1.8747,1.8754,1.8772,1.8817,1.8825,1.8792,1.8861,1.8871,1.891,1.8919,1.8912,1.8915,1.9012,1.9013,1.9014,1.8994,0,0,0,0,0,0,1.859,1.8604,1.8615,1.8665,1.868,1.8738,1.8747,1.8756,1.8778,1.878,1.8828,1.8836,1.8862,1.8904,1.8913,1.8924,1.8918,1.9011,1.9012,1.9013,1.8994,1.8994,1.8994,0,0,0,0,0,1.8585,1.8605,1.8615,1.8627,1.8695,1.8739,1.8748,1.8777,1.8779,1.8791,1.882,1.8834,1.8917,1.8908,1.8918,1.893,1.9011,1.9012,1.9013,1.8994,1.8994,1.8994,0,0,0,0,0,0,1.8554,1.8612,1.8624,1.8661,1.8695,1.8744,1.876,1.8776,1.881,1.881,1.8845,1.8856,1.8892,1.8915,1.8904,1.8963,1.8965,1.8968,1.8946,1.8947,1.8947,1.894,1.8921,0,0,0,0,0,1.8551,1.8582,1.8631,1.8659,1.8675,1.8715,1.8735,1.8755,1.8791,1.8806,1.8838,1.8873,1.8907,1.8928,1.8961,1.8998,1.9009,1.9011,1.9011,1.9011,1.9014,1.9037,1.9039,1.9018,1.9018,1.9018,0,0,1.8546,1.8582,1.8599,1.8653,1.8682,1.8714,1.8726,1.8758,1.8782,1.881,1.8849,1.8875,1.8916,1.8954,1.8972,1.8974,1.9022,1.9013,1.9012,1.9015,1.9038,1.904,1.9042,1.9019,1.9018,1.9018,0,0,1.8553,1.8583,1.861,1.8639,1.8683,1.871,1.8717,1.8765,1.8783,1.8823,1.8846,1.8875,1.8932,1.8961,1.8983,1.9005,1.902,1.9015,1.9014,1.9036,1.9038,1.904,1.9049,1.9051,1.9017,1.9017,1.9017,0,1.8541,1.8589,1.8622,1.8654,1.8678,1.8707,1.8735,1.8762,1.8814,1.883,1.8832,1.8907,1.8936,1.8982,1.8988,1.9005,1.9014,1.9009,1.9035,1.9037,1.9039,1.9048,1.9051,1.9016,1.9016,1.9016,1.9016,0,1.8573,1.8606,1.8623,1.8675,1.8701,1.8731,1.8769,1.8792,1.881,1.8837,1.8879,1.8916,1.8958,1.8971,1.8988,1.902,1.9021,1.9029,1.9031,1.904,1.9049,1.9053,1.9015,1.9015,1.9016,1.9016,0,0,1.856,1.8632,1.8638,1.8663,1.8715,1.8741,1.8774,1.8817,1.8836,1.8872,1.89,1.895,1.8958,1.8984,1.9005,1.9025,1.9042,1.9031,1.9032,1.9032,1.9081,1.9075,1.9078,1.9052,1.9053,1.9054,1.9078,0,1.8575,1.8634,1.8666,1.8712,1.8744,1.8773,1.8802,1.8837,1.8864,1.8895,1.8924,1.8959,1.8967,1.8983,1.9004,1.9035,1.9052,1.9034,1.9079,1.9081,1.9068,1.9083,1.9076,1.9097,1.9082,1.9082,1.9083,0,1.8599,1.8636,1.8686,1.8737,1.8752,1.8777,1.882,1.885,1.8891,1.8909,1.8939,1.8961,1.8998,1.8998,1.9049,1.9036,1.9057,1.9076,1.9077,1.9082,1.9082,1.9089,1.9104,1.9107,1.9088,1.9088,1.9087,0,1.8586,1.8649,1.8687,1.8708,1.8768,1.8785,1.8811,1.8852,1.8877,1.8915,1.8932,1.8973,1.8995,1.9027,1.906,1.9057,1.9109,1.9111,1.9125,1.9124,1.9134,1.9133,1.9153,1.9147,1.9147,1.9147,1.9147,0,1.8599,1.8628,1.8683,1.8706,1.8741,1.8778,1.8811,1.8839,1.8876,1.8907,1.8934,1.8962,1.9004,1.9037,1.9063,1.9103,1.9112,1.9128,1.9135,1.9126,1.9124,1.914,1.9139,1.9148,1.9148,1.9147,1.9147,0,1.859,1.8628,1.8672,1.8726,1.8741,1.8764,1.8811,1.8835,1.8864,1.8902,1.8913,1.8959,1.9,1.9036,1.909,1.9108,1.9148,1.9156,1.9134,1.9138,1.915,1.9149,1.9181,1.9188,1.9176,1.9176,1.9176,0,1.8596,1.862,1.8677,1.87,1.8726,1.8762,1.8788,1.8826,1.8852,1.8903,1.8922,1.8965,1.9002,1.9066,1.9104,1.9146,1.9155,1.9164,1.9161,1.9153,1.9156,1.9155,1.9158,1.9163,1.9163,1.9163,1.9163,0,1.8602,1.8621,1.8657,1.8702,1.8732,1.8769,1.8806,1.8823,1.8868,1.8896,1.8939,1.8968,1.9024,1.9067,1.9114,1.9141,1.916,1.9164,1.917,1.9161,1.9147,1.9156,1.9134,1.9163,1.9163,1.9163,1.9163,1.9163,1.8602,1.8625,1.867,1.8711,1.8743,1.8778,1.8805,1.8838,1.8875,1.8924,1.8945,1.8989,1.9033,1.9098,1.9125,1.916,1.9164,1.9171,1.9173,1.9175,1.9174,1.9142,1.9169,1.9169,1.9169,1.9169,1.9169,0,1.861,1.8642,1.8679,1.8731,1.8764,1.8781,1.8823,1.8849,1.8888,1.8927,1.8964,1.9014,1.9057,1.9099,1.9145,1.9165,1.9175,1.9175,1.9174,1.9181,1.9168,1.9159,1.9167,1.9167,1.9167,1.9167,1.9167,1.9167,1.8619,1.866,1.8684,1.8742,1.8773,1.8817,1.8841,1.8873,1.8905,1.8961,1.8997,1.9025,1.9066,1.9115,1.9156,1.9167,1.9183,1.9181,1.9195,1.9182,1.9181,1.9181,1.9173,1.9184,1.9184,1.9205,1.9205,1.9206]}]]